Location: ??????????
(44.2167°N, 135.5333°E)
Time: 15:06:13
(UTC+00:00)

COBE Rocket - Pass Details

Date: 15 June 2025
Orbit: 674 x 774 km, 97.1° (Epoch: 15 July)

Event Time Altitude Azimuth Distance (km) Brightness Sun altitude
Rises 12:59:20 0° 12° (NNE) 3,232 8.0 -17.2°
Reaches altitude 10° 13:01:41 10° 14° (NNE) 2,290 7.1 -17.4°
Maximum altitude 13:06:44 78° 101° (ESE) 761 3.8 -17.8°
Enters shadow 13:09:19 29° 185° (S) 1,336 4.8 -18.0°
